Terminal Aerodrome Forecast
Issued by NWS

Home | Current Version | Previous Version | Text Only | Print | Product List | Glossary On
Versions: 1 2 3 4 5 6 7 8 9 10 11 12 13 14
000
FTUS41 KBTV 040526
TAFRUT
TAF
KRUT 040526Z 0406/0506 13007KT P6SM BKN250
     FM041300 17006KT P6SM SCT050 BKN150
     FM041800 18006KT P6SM VCSH BKN040 BKN080
     FM050000 15005KT P6SM BKN050 BKN100
      AMD LTD TO CLD VIS AND WIND=

USA.gov is the U.S. government's official web portal to all federal, state and local government web resources and services.